Preview of NWS' New Version of Forecast
This preview is not operational and should not be used for support decisions.
Latest weather observations around

Green Bay, Austin Straubel International Airport (KGRB)

Using English Units (Switch to International System of Units)
Date/ Time (CDT) Wind (mph) Vis. (mi) Weather Sky Cond. Temp (°F) Rel. Humidity Wind Chill (°F) Heat Index (°F) Pressure Precip. (in)
Air Dwpt 6 hour Altimeter (inHg) Sea level (inHg) 1 hr 3 hr 6 hr
Max Min
Aug 23 11:53 ENE 11 10 Clear CLR 68 51     55%     30.28 30.28      
Aug 23 10:53 ENE 8 10 Mostly Clear FEW020 67 54     63%     30.28 30.28      
Aug 23 09:53 NE 9 10 Clear CLR 64 55     73%     30.28 30.28      
Aug 23 08:53 ENE 10 10 Mostly Clear FEW009 60 55     83%     30.27 30.27      
Aug 23 07:53 N 7 10 Clear CLR 57 53     87%     30.24 30.24      
Aug 23 06:53 N 6 10 Clear CLR 52 50     93%     30.24 30.24      
Aug 23 05:53 Calm 10 Clear CLR 50 48     93%     30.23 30.23      
Aug 23 04:53 Calm 10 Clear CLR 52 50     93%     30.21 30.22      
Aug 23 03:53 N 5 10 Clear CLR 54 51     90%     30.21 30.21      
Aug 23 02:53 N 5 10 Mostly Clear FEW040 56 51     84%     30.19 30.19      
Aug 23 01:53 N 3 10 Cloudy OVC034 57 53     87%     30.18 30.18      
Aug 23 00:53 N 6 10 Clear CLR 55 53     93%     30.17 30.16      
Aug 22 23:53 WNW 5 10 Mostly Clear FEW080 57 55     93%     30.15 30.15      
Aug 22 22:53 NW 3 10 Mostly Cloudy FEW047 BKN085 60 57     90%     30.14 30.14      
Aug 22 21:53 Calm 10 Cloudy OVC085 63        %     30.14 30.13      
Aug 22 20:53 SW 3 10 Cloudy FEW031 BKN060 OVC085 64        %     30.13 30.13      
Aug 22 19:53 Calm 10 Cloudy FEW060 OVC085 65        %     30.11 30.11      
Aug 22 18:53 ENE 3 10 Cloudy BKN070 OVC085 66        %     30.09 30.09      
Aug 22 17:53 NE 5 10 Cloudy BKN075 OVC090 67        %     30.09 30.09      
Aug 22 16:53 E 3 10 Cloudy OVC080 68        %     30.09 30.09      
Aug 22 15:53 NNE 7 10 Cloudy SCT048 OVC060 69        %     30.09 30.09      
Aug 22 14:53 ENE 8 10 Cloudy OVC060 67        %     30.1 30.1      
Aug 22 13:53 NE 9 10 Cloudy OVC070 67        %     30.1 30.1      
Aug 22 12:53 NE 10 10 Cloudy FEW065 BKN080 OVC100 69        %     30.09 30.09      
Aug 22 11:53 NE 8 10 Cloudy OVC070 67        %     30.1 30.11      
Aug 22 10:53 NNE 6 10 Cloudy BKN060 OVC080 67        %     30.09 30.09      
Aug 22 09:53 NE 5 10 Cloudy OVC085 67        %     30.08 30.07      
Aug 22 08:53 N 5 10 Mostly Cloudy BKN090 65        %     30.07 30.07      
Aug 22 07:53 N 3 10 Cloudy OVC080 59        %     30.06 30.06      
Aug 22 06:53 Calm 10 Cloudy OVC080 57        %     30.06 30.05      
Aug 22 05:53 Calm 10 Mostly Cloudy SCT065 BKN080 53        %     30.04 30.04      
Aug 22 04:53 N 6 10 Clear CLR 53        %     30.03 30.03      
Aug 22 03:53 NW 3 10 Clear CLR 54        %     30.03 30.03      
Aug 22 02:53 NNW 3 10 Clear CLR 54        %     30.02 30.02      
Aug 22 01:53 NW 3 10 Clear CLR 57        %     30.03 30.02      
Aug 22 00:53 Calm 10 Cloudy OVC070 61        %     30.03 30.02      
Aug 21 23:53 NNW 3 10 Mostly Cloudy BKN065 60 50     69%     30.03 30.02      
Aug 21 22:53 N 7 10 Clear CLR 61 50     67%     30.01 30      
Aug 21 21:53 N 7 10 Clear CLR 64 51     63%     30 29.99      
Aug 21 20:53 NNW 8 10 Clear CLR 67 52     59%     29.98 29.98      
Aug 21 19:53 NNW 7 10 Clear CLR 69 52     54%     29.96 29.95      
Aug 21 18:53 NNW 8 10 Partly Cloudy SCT070 74 53     48%   73 29.95 29.94      
Aug 21 17:53 NW 11 10 Clear CLR 78 51     39%   77 29.95 29.95      
Aug 21 16:53 NNW 8 10 Partly Cloudy SCT060 79 51     38%   78 29.96 29.95      
Aug 21 15:53 WNW 10 10 Clear CLR 80 52     38%   80 29.95 29.94      
Aug 21 14:53 WNW 13 10 Mostly Clear FEW060 80 51     36%   79 29.94 29.93      
Aug 21 13:53 WNW 11 10 Mostly Clear FEW046 78 57     48%   78 29.95 29.94      
Aug 21 13:29 NW 13 10 Mostly Cloudy SCT045 BKN055 79 58     49%   79 29.95        
Aug 21 12:53 W 9 10 Mostly Clear FEW040 79 59     50%   79 29.96 29.95      
Aug 21 11:53 NNW 9 10 Partly Cloudy FEW028 SCT037 77 60     56%   77 29.97 29.96      
Aug 21 10:53 NNW 6 10 Mostly Cloudy BKN037 74 62     66%   74 29.96 29.95      
Aug 21 09:53 N 3 10 Cloudy BKN035 OVC060 72 62     71%   72 29.96 29.96      
Aug 21 08:53 N 10 10 Partly Cloudy FEW034 SCT050 70 63     78%     29.96 29.95      
Aug 21 07:53 NNW 5 10 Mostly Cloudy BKN070 68 63     84%     29.95 29.94      
Aug 21 06:53 N 3 10 Clear CLR 65 63     93%     29.91 29.9      
Aug 21 05:53 Calm 10 Clear CLR 63 62     97%     29.9 29.89      
Aug 21 04:53 W 6 10 Partly Cloudy SCT085 64 63     96%     29.91 29.9      
Aug 21 03:53 SSW 3 10 Mostly Cloudy BKN090 65 64     97%     29.92 29.91      
Aug 21 02:53 Calm 10 Clear CLR 65 64     97%     29.92 29.91      
Aug 21 01:53 WNW 5 10 Mostly Clear FEW080 67 64     90%     29.92 29.91      
Aug 21 00:53 W 6 10 Clear CLR 67 65     93%     29.94 29.93      
Aug 20 23:53 W 6 10 Clear CLR 69 66     90%     29.93 29.92      
Aug 20 22:53 W 7 10 Clear CLR 69 67     93%     29.93 29.92      
Aug 20 21:53 Calm 10 Clear CLR 70 67     90%     29.92 29.91      
Aug 20 20:53 Calm 10 Clear CLR 73 69     87%   74 29.92 29.91      
Aug 20 19:53 SW 5 10 Clear CLR 77 69     77%   78 29.9 29.9      
Aug 20 18:53 3 10 Clear CLR 80 70     71%   83 29.91 29.9      
Aug 20 17:53 SSW 8 10 Partly Cloudy SCT039 81 70     69%   84 29.92 29.92      
Aug 20 16:53 SSW 6 10 Clear CLR 81 68     65%   84 29.91 29.9      
Aug 20 15:53 S 9 10 Clear CLR 81 66     61%   83 29.9 29.89      
Aug 20 14:53 S 11 9 Clear CLR 82 66     58%   84 29.9 29.89      
Aug 20 13:53 WSW 9 10 Mostly Cloudy FEW039 BKN050 82 64     55%   84 29.97 29.97      
Aug 20 12:53 W 6 10 Clear CLR 80 63     56%   81 29.99 29.98      
May 15 10:53 NE 17 10 Clear CLR 62 46     56%     30.05 30.05      
May 15 08:53 ENE 15 10 Clear CLR 63 49     60%     30 30      
May 14 06:53 SW 7 8 Clear CLR 58 55     90%     29.93 29.93      
May 13 18:53 SSW 10 10 Clear CLR 65 53     65%     29.92 29.93      
May 12 07:53 NNE 9 10 Clear CLR 46 38     73% 41   30.16        
May 12 00:53 ENE 7 10 Cloudy OVC055 44 34     67% 40   30.11 30.12     0
May 11 21:53 NE 10 10 Cloudy OVC095 44 34     67% 39   30.11 30.13      
May 11 07:53 E 8 10 Mostly Cloudy BKN110 40 27     60% 34   30.18        
Jun 12 03:53 SSW 11 10 Mostly Cloudy BKN100 80 68     67%   83 29.77        
Jun 11 21:53 ESE 6 10 Clear CLR 71 65     81%   72 29.8        
Jun 11 04:53 SSW 6 10 Clear CLR 73 62     68%   73 29.77        
Jun 11 02:53 SSW 7 10 Mostly Clear FEW065 76 61     60%   76 29.73        
Jun 10 21:53 SSW 11 10 Clear CLR 81 61     51%   82 29.64        
Jun 10 19:53 SSW 10 10 Clear CLR 85 62     46%   86 29.61        
Jun 09 17:53 NE 10 10 Mostly Cloudy BKN095 75 60     60%   75 29.79        
Jun 08 22:53 SSE 7 10 Cloudy SCT070 BKN080 OVC110 64 64     100%     29.78   0    
Jun 08 21:31 ESE 3 7 Light Rain BKN075 OVC095 64 64     100%     29.83   0    
Jun 08 05:53 Calm 10 Clear CLR 56 54     93%     30.02        
Jun 07 19:53 S 6 10 Clear CLR 75 52     45%   74 30.05        
Jun 07 08:53 Calm 10 Clear CLR 66 54     65%     30.18        
Jun 06 12:53 ENE 16 10 Clear CLR 74 49     41%   73 30.09